Temperature
8 8 8 8 8 9 8 8 8 9 10 10 9 9 10 11 11 11 13 14 15 15 16 16 17 17 17 17 17 17 17 17 17 17 17 16 16 16 16 16 16 15 15 15
7 8 8 9 9 9 8 8 8 9 9 10 8 8 9 9 10 11 12 13 14 15 15 15 16 16 16 17 17 17 17 17 17 17 17 17 17 17 17 16 16 16 15 15
8 8 9 9 9 9 8 8 8 9 9 8 8 9 9 9 10 10 11 12 13 13 14 15 15 15 16 16 16 16 17 17 17 17 17 16 16 16 16 16 16 16 15 15
8 8 9 8 9 9 8 9 9 9 8 7 8 8 8 9 8 8 9 11 12 13 13 14 14 15 15 15 16 16 16 16 16 16 16 16 16 16 16 17 16 16 16 15
7 8 8 8 9 9 8 8 8 8 7 7 7 7 8 8 9 9 9 10 11 12 13 13 14 14 14 15 15 15 16 16 16 16 16 16 16 16 16 16 16 16 16 15
7 8 8 8 8 9 8 7 6 5 6 6 6 7 8 8 9 9 9 10 10 11 12 13 13 14 14 14 14 15 15 15 15 15 15 15 15 15 15 15 16 16 15 15
7 7 8 8 7 8 8 7 6 6 5 6 6 6 7 8 9 9 9 9 10 11 11 12 13 13 13 14 14 14 14 15 15 15 15 15 15 15 15 15 15 15 15 15
6 6 7 8 7 7 7 7 6 6 6 5 5 5 6 8 8 9 9 9 10 11 11 11 12 12 12 13 13 13 13 14 14 14 14 14 14 14 14 14 14 14 15 15
6 6 7 8 7 7 6 6 6 5 4 5 5 5 6 8 8 8 9 9 10 10 11 11 11 11 11 12 12 12 12 13 13 13 13 13 13 13 13 13 13 13 14 14
6 6 6 7 8 7 7 5 4 4 5 6 7 6 7 8 8 8 7 8 10 10 10 10 10 10 10 10 11 11 11 11 12 12 12 12 12 12 12 12 12 12 12 13
6 6 6 7 7 6 6 6 5 4 4 5 6 8 8 8 8 8 8 9 9 10 9 9 9 9 9 9 9 10 10 10 10 11 11 11 11 11 11 11 11 11 11 11
6 5 5 6 6 7 6 5 4 4 4 3 4 6 8 8 8 8 8 9 10 9 9 8 8 8 8 8 8 9 9 9 9 9 10 10 10 10 10 10 10 10 10 10
7 5 5 5 5 6 6 5 5 5 3 2 3 6 7 7 7 8 9 9 9 9 8 8 8 8 7 7 7 8 8 8 8 8 8 9 9 9 9 9 9 9 9 9
7 5 5 5 5 5 5 5 5 5 3 3 3 5 6 7 7 8 9 9 9 8 8 7 7 7 6 6 6 7 7 7 7 7 7 7 8 8 8 8 8 8 8 7
6 5 6 6 6 6 6 5 5 5 4 4 4 4 6 7 7 8 9 9 8 8 7 6 6 6 6 6 6 6 6 6 6 6 6 6 6 6 6 6 6 6 6 6
6 6 6 6 6 6 5 5 5 5 5 5 5 6 7 7 8 8 8 8 7 7 6 6 5 5 5 5 5 5 5 5 5 5 5 5 5 5 5 5 5 4 4 4
5 5 5 5 5 6 5 5 5 5 5 5 6 7 7 7 7 8 8 7 7 6 6 5 5 5 5 4 4 4 4 4 4 4 4 4 4 4 4 4 3 3 3 2
5 5 5 5 5 5 7 7 6 6 6 6 6 7 7 7 8 8 8 7 6 6 5 5 4 4 4 4 3 3 3 3 3 3 3 3 3 3 3 2 2 2 1 1
5 5 5 5 5 5 6 7 6 6 7 7 7 7 8 8 7 7 7 7 6 5 5 4 4 4 3 3 3 3 3 2 2 2 2 2 2 2 2 1 1 1 1 0
5 5 5 5 5 5 7 8 8 7 7 8 8 7 8 7 6 6 7 6 5 5 4 4 3 3 3 2 2 2 2 2 2 1 1 1 1 1 1 1 1 0 0 -0
5 5 5 5 5 5 6 7 8 7 8 9 8 8 8 6 7 7 6 5 5 4 4 3 3 2 2 2 2 1 1 1 1 1 0 0 0 0 0 0 0 0 0 -0
5 5 5 5 5 5 7 7 7 7 8 8 8 8 7 7 7 6 5 5 4 4 3 2 2 2 1 1 1 1 1 1 0 0 0 0 0 0 -0 0 -0 -0 -0 -1
5 5 5 5 6 7 7 8 8 8 8 8 8 8 7 6 6 6 5 4 4 3 3 2 2 1 1 1 1 1 1 0 0 0 0 0 -0 -0 -0 -0 -0 -1 -1 -1
4 4 5 5 5 6 7 8 8 8 8 8 7 7 7 6 6 5 5 4 3 3 2 2 1 1 1 0 0 0 0 0 0 0 -0 -0 -0 -0 -0 -1 -1 -1 -1 -2
5 4 4 5 5 6 8 8 8 8 7 7 7 7 6 5 5 5 4 4 3 3 2 2 1 1 1 1 0 0 0 0 0 0 0 -0 -0 -0 -1 -1 -1 -2 -2 -2
3 4 4 5 5 5 6 7 7 7 7 7 6 6 5 5 5 4 4 3 3 2 2 2 1 1 1 1 1 0 0 0 0 0 0 -0 -0 -1 -1 -1 -2 -2 -2 -3
Wind_Speed
7 7 12 13 9 5 8 7 5 4 2 2 6 10 13 10 8 10 11 10 10 10 9 8 8 8 7 8 9 11 13 13 11 10 12 12 13 12 11 11 15 18 18 19
7 10 8 8 8 6 6 5 3 1 2 2 5 10 11 9 8 9 10 10 10 8 7 6 6 6 7 8 9 10 12 12 12 13 13 9 9 9 11 9 10 16 17 18
7 5 9 9 9 8 5 6 5 2 3 3 5 9 7 5 3 4 4 5 6 7 7 6 5 5 4 6 7 8 10 11 12 12 8 5 4 3 5 8 11 12 16 18
3 4 9 10 9 8 6 5 5 3 2 3 4 5 8 5 5 4 5 5 5 5 5 5 4 4 4 5 5 6 7 9 10 10 10 12 12 13 13 12 12 12 14 15
4 5 9 9 7 7 4 5 5 3 3 2 1 2 9 4 2 4 5 6 6 5 4 5 5 5 4 4 3 4 5 6 7 8 11 13 14 13 9 7 9 10 10 12
3 2 4 5 6 8 8 7 6 5 3 3 4 5 7 3 3 3 5 7 7 7 6 5 5 5 5 4 3 3 3 5 5 7 9 12 14 13 10 9 11 10 8 8
3 2 2 5 7 6 5 6 3 2 1 5 2 4 9 6 4 3 3 5 6 6 7 8 9 9 9 8 7 6 5 6 6 6 9 11 13 13 14 14 13 12 9 9
6 5 3 3 5 7 5 6 6 5 4 4 2 6 8 5 4 1 0 2 5 7 7 8 8 8 8 9 9 8 8 8 7 7 9 10 11 10 10 12 11 13 11 11
5 4 3 4 4 8 6 4 4 5 2 2 5 6 8 1 2 3 3 5 7 8 8 8 8 8 8 9 9 8 9 10 9 9 8 8 9 10 10 9 9 7 6 6
5 6 3 3 6 5 5 7 5 5 4 3 5 5 4 3 2 2 5 7 8 8 8 8 8 8 8 8 8 9 8 9 10 9 8 7 7 7 7 7 8 7 8 9
4 6 4 3 4 6 5 4 5 4 4 4 3 5 4 6 4 0 5 7 7 8 7 7 7 8 8 8 8 9 9 9 9 8 7 5 4 4 5 6 7 8 9 11
4 5 4 1 1 4 5 6 6 5 4 4 2 7 4 4 2 2 6 8 7 7 6 5 6 7 8 8 9 8 9 8 8 7 5 3 1 2 5 6 8 10 11 11
5 6 5 2 2 1 3 5 5 5 5 5 4 6 3 2 5 6 7 9 9 7 6 5 6 6 8 8 8 8 8 7 7 5 3 3 2 4 6 8 10 11 12 12
5 4 5 7 5 6 5 6 7 6 5 5 7 8 8 8 9 11 11 9 8 7 6 5 5 6 7 7 7 7 7 7 5 5 6 6 5 6 8 10 11 12 13 13
5 4 2 2 3 5 5 7 10 9 8 8 7 7 12 10 9 10 9 8 8 6 5 5 5 5 6 7 7 7 7 6 5 7 8 8 8 10 11 12 12 13 13 14
4 4 2 1 1 4 5 8 11 11 10 11 10 12 13 9 6 7 9 8 7 6 4 4 4 5 6 6 6 6 6 5 6 8 8 9 11 12 12 13 13 14 14 14
3 4 2 1 2 1 6 9 13 7 7 9 13 12 10 9 10 9 7 6 5 4 3 3 3 3 4 4 4 5 5 5 7 9 9 10 12 13 13 14 14 14 13 14
5 4 3 0 1 4 6 3 7 8 8 10 9 10 9 9 8 6 4 3 3 2 2 2 2 2 3 4 5 5 6 7 8 9 9 10 11 13 13 13 13 13 12 12
4 5 3 1 2 6 7 3 5 6 5 7 11 12 10 6 5 4 1 1 1 0 0 1 1 2 3 4 5 6 7 7 8 9 9 9 10 12 13 13 12 11 11 11
3 4 3 2 2 4 4 1 2 4 3 2 4 6 5 1 3 3 2 2 2 3 2 3 3 4 5 5 6 7 7 8 8 8 9 9 10 11 12 12 11 10 10 10
4 3 4 4 4 7 6 3 3 2 3 3 3 4 4 4 5 2 3 2 3 4 4 4 5 5 4 5 7 8 7 7 7 8 9 9 10 10 10 10 10 10 10 10
6 5 5 5 5 7 3 4 4 4 3 3 4 4 4 4 2 3 3 4 5 5 4 5 6 5 5 5 7 8 7 7 8 9 10 10 9 9 9 10 9 9 9 9
6 7 5 7 7 4 2 4 4 3 4 5 4 4 3 3 4 4 4 5 5 5 5 5 6 6 5 5 6 8 7 7 9 9 10 9 9 8 8 8 8 7 6 6
4 4 4 5 7 6 7 6 5 5 5 5 4 4 3 4 4 4 5 6 6 6 6 6 7 7 6 5 6 7 7 8 9 9 8 8 8 8 7 6 5 5 5 5
4 4 3 5 6 7 4 2 3 3 3 3 3 2 3 3 4 5 6 7 7 6 6 6 7 7 7 6 7 7 7 8 9 9 8 7 7 8 7 6 5 5 3 4
3 4 4 5 3 3 5 5 4 4 4 4 3 3 2 3 5 5 6 7 7 7 7 7 7 8 7 7 7 6 7 8 9 8 7 6 6 6 6 6 6 9 8 9
Wind_Direction
161 176 195 194 185 155 152 155 179 219 282 285 261 271 274 271 258 256 261 263 262 258 258 258 249 240 234 229 221 216 213 213 203 199 205 208 214 213 212 211 208 204 200 195
158 205 189 155 158 140 136 140 167 278 342 321 295 279 270 259 245 241 251 261 263 268 275 265 253 238 226 226 225 223 220 216 208 207 207 207 208 214 214 211 207 205 200 195
173 170 157 158 168 170 169 164 169 191 354 25 334 298 289 296 293 290 276 271 278 269 274 280 274 257 237 233 229 228 227 223 216 212 206 193 185 185 195 208 213 208 201 197
163 155 158 167 180 170 194 175 155 140 68 321 13 308 295 311 334 337 327 322 306 294 288 292 297 293 270 254 247 237 235 231 226 215 206 202 208 214 213 213 213 207 200 198
170 156 162 172 169 147 143 120 116 113 121 327 299 227 285 327 345 347 342 342 334 323 319 319 312 298 293 287 276 259 251 243 235 222 215 214 219 221 216 206 202 202 200 197
90 103 135 139 122 127 120 88 71 60 80 259 218 192 279 267 230 309 334 347 355 1 4 2 358 358 349 342 332 315 292 271 250 231 224 221 224 221 211 203 204 203 197 195
104 81 85 111 111 117 126 117 94 26 351 247 193 205 252 263 259 254 299 338 353 7 14 12 9 4 358 352 345 339 325 301 282 253 238 230 229 223 219 213 210 203 198 200
141 149 159 128 140 152 160 147 161 186 214 270 191 234 256 274 293 234 221 338 4 11 9 6 359 354 349 346 344 338 326 309 295 272 254 243 233 228 227 218 210 206 206 202
134 121 74 89 107 129 134 141 143 125 111 279 259 272 301 291 75 67 22 8 6 359 357 353 348 348 344 340 336 330 320 309 301 286 269 254 240 230 225 216 206 199 188 170
121 113 110 109 85 53 134 140 117 130 159 259 288 267 236 196 166 5 2 355 343 344 346 345 344 340 336 332 328 328 321 308 301 295 283 271 249 231 219 198 186 174 160 150
102 114 115 119 158 158 126 116 111 110 144 168 275 282 220 190 178 311 325 322 321 327 331 333 333 330 327 329 332 332 329 322 316 311 304 286 257 218 192 179 170 158 147 146
108 107 117 118 342 168 148 155 144 149 190 172 203 271 290 195 199 292 307 311 318 322 323 325 327 328 331 332 333 333 332 328 322 319 317 305 256 164 156 151 144 140 139 138
125 112 111 81 9 132 156 161 150 128 125 159 194 266 311 329 309 307 311 317 320 324 327 330 335 336 334 333 332 332 333 333 334 345 3 26 71 117 128 128 126 127 127 126
109 108 153 180 201 172 182 180 164 145 167 200 227 261 289 294 307 312 314 313 313 315 321 330 335 337 336 336 334 336 342 349 2 26 48 59 70 90 102 108 113 117 119 119
93 112 141 181 169 162 187 188 187 196 194 203 232 240 266 275 285 294 297 303 308 313 322 331 332 332 336 342 344 349 358 4 27 54 61 68 77 85 92 97 101 106 109 111
84 114 111 18 190 202 224 217 207 215 219 232 255 272 265 270 276 282 288 295 301 309 316 324 335 340 344 349 351 356 8 20 48 67 71 78 85 88 91 95 98 101 103 105
114 125 118 288 306 333 259 224 204 202 205 202 234 247 270 287 288 286 289 291 293 301 306 321 334 342 352 357 4 13 26 46 65 75 80 85 91 93 93 97 98 99 101 102
127 119 121 130 21 245 248 221 186 205 229 214 231 254 268 268 282 284 270 261 276 292 313 338 350 8 21 32 41 48 56 64 73 79 84 88 94 97 98 98 99 99 100 100
123 132 140 161 266 284 297 253 177 185 258 226 231 255 269 282 306 286 194 161 202 267 26 61 66 71 65 64 69 73 70 72 77 81 85 91 99 102 103 102 102 102 102 98
104 118 144 168 226 255 256 277 175 137 281 247 208 254 276 313 305 279 160 128 98 87 89 89 84 83 78 75 83 84 80 79 80 84 88 91 98 103 104 104 103 101 100 100
158 163 189 205 236 265 257 256 133 165 243 269 245 260 261 230 237 226 140 128 115 106 101 98 94 88 87 93 96 94 90 86 89 91 92 92 94 97 100 99 99 101 102 100
183 185 194 186 213 254 252 138 173 227 269 282 278 273 263 248 233 166 156 144 131 120 113 109 102 93 89 98 105 102 96 96 97 96 94 92 92 95 100 101 98 100 105 104
200 196 192 201 220 245 238 220 247 248 269 279 278 282 269 245 220 186 165 151 143 137 131 121 115 105 95 96 109 110 106 107 105 101 98 95 93 91 95 102 106 103 101 105
241 187 195 251 264 264 265 262 269 259 257 274 279 281 246 242 217 185 167 158 152 147 143 135 126 120 112 106 107 113 117 116 111 107 103 102 100 95 87 86 92 100 104 105
232 175 204 252 281 305 307 303 312 313 303 302 306 280 251 233 207 183 172 165 158 151 145 142 137 132 128 122 117 118 122 122 115 110 108 103 98 99 90 82 83 94 92 128
207 183 195 234 253 261 286 315 330 313 302 296 296 296 267 209 196 175 168 162 156 152 146 141 137 135 133 129 124 124 127 129 125 119 113 108 106 102 100 97 85 83 89 91
Height
1456 1461 1462 1464 1467 1471 1475 1479 1481 1481 1479 1479 1479 1477 1471 1468 1469 1468 1468 1468 1468 1470 1472 1474 1476 1478 1480 1482 1484 1486 1488 1490 1492 1494 1496 1497 1499 1502 1504 1507 1509 1511 1514 1516
1457 1458 1458 1463 1467 1470 1474 1479 1481 1480 1479 1479 1479 1475 1467 1464 1463 1463 1462 1462 1463 1464 1465 1467 1469 1471 1473 1475 1477 1479 1481 1484 1485 1487 1489 1491 1494 1496 1498 1501 1503 1506 1508 1510
1451 1454 1457 1462 1466 1470 1474 1477 1480 1481 1480 1481 1481 1473 1466 1460 1460 1459 1459 1458 1458 1459 1460 1461 1463 1465 1467 1469 1471 1473 1475 1477 1479 1481 1484 1485 1487 1488 1491 1493 1496 1498 1501 1504
1452 1453 1456 1461 1464 1468 1473 1474 1476 1479 1484 1487 1486 1485 1469 1463 1461 1458 1457 1456 1455 1456 1457 1458 1459 1460 1461 1463 1465 1467 1469 1471 1473 1475 1476 1477 1478 1479 1482 1485 1488 1491 1494 1497
1452 1453 1456 1460 1463 1466 1471 1473 1477 1482 1486 1489 1488 1487 1472 1465 1462 1459 1457 1456 1454 1454 1454 1455 1456 1457 1458 1459 1460 1462 1463 1465 1466 1468 1469 1470 1471 1473 1475 1478 1480 1483 1486 1489
1453 1454 1456 1459 1462 1466 1471 1478 1484 1488 1490 1492 1487 1488 1475 1467 1462 1460 1458 1456 1454 1453 1453 1454 1454 1454 1455 1455 1456 1457 1458 1459 1460 1461 1462 1462 1463 1465 1467 1469 1472 1474 1477 1480
1455 1456 1457 1459 1465 1470 1472 1480 1489 1492 1497 1493 1488 1488 1475 1463 1461 1460 1459 1457 1455 1454 1453 1453 1452 1452 1452 1452 1452 1453 1453 1454 1454 1455 1455 1456 1456 1458 1459 1461 1463 1466 1468 1471
1455 1459 1459 1460 1463 1468 1472 1476 1485 1489 1492 1491 1489 1487 1471 1462 1459 1458 1458 1457 1455 1454 1453 1453 1452 1451 1450 1449 1449 1448 1448 1448 1448 1448 1448 1448 1449 1450 1451 1453 1455 1457 1460 1463
1454 1460 1460 1460 1462 1466 1473 1478 1480 1490 1494 1494 1486 1480 1468 1459 1459 1458 1458 1456 1455 1454 1453 1452 1450 1449 1448 1447 1445 1444 1442 1442 1441 1441 1440 1440 1441 1441 1443 1445 1447 1450 1453 1456
1451 1460 1462 1463 1464 1468 1470 1476 1484 1490 1490 1485 1478 1476 1469 1461 1460 1459 1458 1456 1454 1453 1452 1450 1448 1447 1445 1444 1442 1440 1438 1436 1435 1434 1433 1432 1432 1434 1435 1437 1440 1442 1445 1448
1450 1459 1465 1465 1467 1470 1473 1477 1482 1489 1490 1492 1481 1469 1459 1459 1458 1458 1457 1455 1454 1452 1450 1448 1446 1445 1443 1440 1438 1435 1433 1431 1429 1427 1426 1425 1425 1426 1428 1430 1433 1436 1439 1442
1451 1459 1467 1468 1467 1466 1469 1473 1479 1486 1492 1496 1495 1477 1456 1456 1456 1456 1455 1453 1452 1450 1448 1446 1444 1442 1439 1437 1434 1432 1429 1426 1424 1422 1420 1419 1419 1420 1422 1424 1427 1431 1434 1438
1450 1459 1469 1472 1474 1470 1469 1472 1474 1480 1488 1497 1494 1473 1457 1456 1455 1454 1453 1451 1449 1447 1445 1443 1441 1439 1436 1433 1431 1428 1426 1423 1420 1418 1416 1415 1415 1416 1418 1420 1423 1427 1430 1434
1448 1458 1464 1468 1466 1467 1468 1470 1473 1477 1486 1489 1484 1472 1460 1456 1454 1452 1450 1448 1447 1445 1443 1441 1438 1436 1434 1431 1429 1426 1423 1420 1418 1415 1414 1413 1413 1414 1416 1418 1421 1424 1428 1432
1449 1458 1459 1461 1460 1462 1464 1466 1469 1471 1474 1478 1472 1470 1458 1454 1453 1450 1448 1446 1444 1443 1441 1439 1436 1434 1432 1429 1427 1424 1422 1419 1417 1415 1414 1413 1413 1414 1416 1418 1421 1424 1427 1431
1452 1458 1459 1461 1460 1462 1463 1462 1464 1465 1466 1466 1466 1462 1451 1450 1449 1447 1445 1444 1442 1440 1439 1437 1435 1433 1430 1428 1425 1423 1421 1419 1417 1416 1415 1415 1415 1415 1417 1419 1422 1425 1428 1431
1455 1458 1462 1465 1462 1460 1462 1455 1457 1459 1458 1459 1460 1454 1447 1448 1446 1444 1442 1441 1440 1438 1437 1435 1433 1431 1430 1428 1425 1423 1421 1420 1418 1417 1417 1417 1417 1418 1419 1422 1424 1427 1430 1433
1455 1459 1463 1463 1463 1465 1453 1446 1448 1451 1450 1450 1449 1446 1445 1444 1442 1441 1440 1439 1437 1436 1435 1433 1432 1430 1429 1428 1426 1424 1423 1421 1420 1420 1419 1420 1420 1421 1423 1425 1428 1430 1434 1437
1453 1457 1461 1463 1464 1461 1449 1444 1445 1448 1446 1443 1444 1443 1442 1441 1440 1438 1437 1436 1436 1434 1433 1432 1431 1430 1429 1428 1427 1426 1425 1424 1423 1423 1423 1423 1424 1425 1426 1429 1432 1435 1437 1440
1454 1456 1461 1461 1462 1462 1448 1442 1441 1445 1444 1440 1440 1440 1440 1440 1441 1438 1436 1435 1433 1432 1432 1431 1430 1430 1429 1429 1428 1427 1427 1426 1426 1426 1427 1428 1429 1430 1431 1434 1436 1439 1441 1444
1454 1456 1458 1458 1459 1455 1444 1440 1442 1448 1444 1439 1438 1438 1437 1437 1437 1435 1433 1432 1432 1431 1431 1430 1430 1430 1430 1430 1429 1429 1429 1429 1429 1430 1431 1432 1433 1434 1436 1438 1440 1443 1445 1447
1451 1452 1453 1455 1457 1454 1439 1440 1443 1441 1438 1437 1436 1435 1435 1434 1432 1431 1431 1430 1430 1430 1430 1430 1430 1430 1430 1431 1431 1431 1431 1432 1433 1434 1434 1436 1437 1439 1441 1442 1444 1446 1448 1450
1448 1449 1449 1449 1447 1440 1438 1438 1437 1437 1436 1435 1434 1433 1432 1430 1429 1429 1428 1428 1428 1429 1429 1430 1430 1431 1431 1432 1433 1434 1434 1435 1436 1437 1438 1440 1441 1443 1445 1446 1448 1449 1451 1452
1444 1443 1445 1444 1439 1436 1436 1435 1435 1434 1433 1432 1431 1430 1429 1427 1427 1426 1426 1426 1427 1428 1428 1429 1430 1431 1432 1433 1434 1435 1436 1438 1439 1440 1442 1443 1445 1446 1448 1449 1451 1452 1452 1453
1440 1441 1442 1441 1437 1434 1432 1433 1432 1431 1430 1429 1428 1427 1426 1425 1424 1424 1424 1425 1425 1426 1428 1429 1430 1431 1433 1434 1436 1437 1439 1440 1442 1443 1445 1446 1448 1449 1450 1452 1453 1453 1454 1454
1438 1439 1440 1438 1435 1435 1433 1432 1431 1429 1428 1427 1425 1424 1423 1422 1421 1422 1422 1423 1424 1425 1427 1428 1430 1432 1434 1435 1437 1439 1441 1443 1444 1446 1447 1449 1450 1451 1452 1453 1453 1454 1454 1454